User: anonymous   Login
Location: Caltech
(34.1382°N, 118.1253°W)
Time: 21:49:48
(UTC-08:00)
Language:

DELTA 2 R/B (1) - Orbit

View from above orbital plane
View from above orbital plane
View from above satellite
View from above satellite

Ground track
Ground track

The orbit data is extracted from the following two-line orbital elements,

1 27665U 03005C   17016.91333014 -.00000128 +00000-0 -16810-4 0  9996
2 27665 039.5748 160.5141 0009169 356.7750 150.3765 14.28431818729207
Epoch (UTC): 16 January 2017 21:55:11
Eccentricity: 0.0009169
inclination: 39.5748°
perigee height: 790 km
apogee height: 803 km
right ascension of ascending node: 160.5141°
argument of perigee: 356.7750°
revolutions per day: 14.28431818
mean anomaly at epoch: 150.3765°
orbit number at epoch: 72920

The dashed part of the orbit path shows where the satellite is in the earth's shadow,  

DLR